Back to catalog

COSMOS 375 DEB

AliveLEO
NORAD 4634·DEBRIS·🇷🇺 Russia

Launched Oct 30, 1970 from Baikonur Cosmodrome

Loading…

Next Passes (next 24 hours)

TLE

FreshSource: Space-Track

Epoch: Sep 14, 2026, 10:52 UTC

1 04634U 70091L   26257.45281397  .00004167  00000-0  63595-3 0  9994
2 04634  62.7860 204.8915 0533334  95.4340 270.7767 14.09472751756951

Track COSMOS 375 DEB in real time with AllMySat

Download on the App Store